Regional Weather Roundup
Issued by NWS Mobile, AL

Home | Current Version | Previous Version | Text Only | Print | Product List | Glossary On
Versions: 1 2 3 4 5 6 7 8 9 10 11 12 13 14 15 16 17 18 19 20 21 22 23 24 25 26 27
000
ASUS44 KMOB 221712
RWRMOB
REGIONAL WEATHER ROUNDUP
NATIONAL WEATHER SERVICE MOBILE AL
1100 AM CST SUN JAN 22 2017

NOTE: "FAIR" INDICATES FEW OR NO CLOUDS BELOW 12,000 FEET WITH NO
      SIGNIFICANT WEATHER AND/OR OBSTRUCTIONS TO VISIBILITY.

  * THESE STATIONS ARE PART OF THE UNIVERSITY OF SOUTH ALABAMA
    MESONET AND ARE NOT UNDER NWS OR FAA QUALITY CONTROL.

ALZ061>064-221800-
COASTAL ALABAMA

CITY           SKY/WX    TMP DP  RH WIND       PRES   REMARKS
MOBILE REG APT CLOUDY    59  53  80 W23G35    29.47S
BROOKLEY FIELD CLOUDY    62  58  86 NW22G33   29.44R
USA CAMPUS*      N/A     59  55  88 NW3       29.46R
DOG RIVER*       N/A     61  55  82 NW21      30.03R


CITY           SKY/WX    TMP DP  RH WIND       PRES   REMARKS
GULF SHORES    PTSUNNY   68  68 100 W13G21    29.36F

$$

ALZ051>060-221800-
INTERIOR SOUTHWEST AND SOUTH CENTRAL ALABAMA

CITY           SKY/WX    TMP DP  RH WIND       PRES   REMARKS
GREENVILLE     LGT RAIN  68  64  87 E7        29.34F FOG
EVERGREEN      LGT RAIN  71  68  90 E12       29.31F FOG
ATMORE*          N/A     70  68  94 SE9       29.35F
ANDALUSIA/OPP  TSTM      71  68  90 E3        29.33F FOG
ANDALUSIA*       N/A     66  63  88 S5        29.35F
FLORALA APT    LGT RAIN  69  66  90 E5        29.36F FOG
FLORALA*         N/A     68  66  94 NW5       29.85F

$$

FLZ001>006-221800-
WESTERN FLORIDA PANHANDLE

CITY           SKY/WX    TMP DP  RH WIND       PRES   REMARKS
PENSACOLA      LGT RAIN  67  64  90 SW15G21   29.36F FOG
NAS PENSACOLA  CLOUDY    68  66  93 SW16G25   29.35F THUNDER FOG
MILTON         TSTM      64  63  96 SW6       29.35F
WHTNG S FIELD  TSTM      66  64  93 VRB5      29.36F FOG


CITY           SKY/WX    TMP DP  RH WIND       PRES   REMARKS
JAY*             N/A     68  64  88 S10       29.34F
DUKE FIELD     LGT RAIN  70  65  85 S16       29.32F
CRESTVIEW      TSTM      68  65  90 SE6       29.31F FOG
VALPARAISO     TSTM      72  70  94 S20G26    29.32F
DESTIN         CLOUDY    76  73  91 S21G33    29.36F

$$

MSZ076-079-221800-
INTERIOR SOUTHEAST MISSISSIPPI

CITY           SKY/WX    TMP DP  RH WIND       PRES   REMARKS
LEAKESVILLE*   NOT AVBL
AGRICOLA*      NOT AVBL

$$

MARINE OBSERVATIONS

STATION/POSITION TIME  TEMP    WIND        PRES    WAVE
                       AIR SEA DIR/SP/G            HT/PER
                 (UTC) (F)     (DEG/KT/KT) (MB)    (FT/S)
PASCAGOULA       1648   58     320/ 20/ 27  997.2R
PETIT BOIS ISLND 1648   60     310/ 29/ 37  998.2R
GRAND BAY        1530   67     280/  3      997.0S
KATRINA CUT      1630          270/ 23      995.9S
CEDAR POINT      1630   66     270/ 19      995.9S
E DAUPHIN ISLAND 1600   67     290/  9/ 10  994.6F
MIDDLE BAY LIGHT 1630   67     270/ 12      995.3F
USCG MOBILE BAY  1648   60 67  300/ 13/ 21  996.7R
STATE DOCKS      1648   62 62               996.0R
MEAHER PARK      1630   68     240/  8      994.6F
WEEKS BAY        1545   64                   N/A
FORT MORGAN      1648   62     300/ 41/ 49   N/A
12 S ORANGE BCH  1650   67 66  260/ 21/ 25  993.9F   6/ 8
PENSACOLA BAY    1648   67 64  230/ 17/ 23  994.8R
67 S FORT MORGAN 1630   69                  996.6F

$$

SELECTED LOCATIONS ACROSS THE REGION

CITY           SKY/WX    TMP DP  RH WIND       PRES   REMARKS
NEW ORLEANS    MOSUNNY   64  49  57 W20       29.50F
GULFPORT       LGT RAIN  57  54  89 NW9       29.46F
PASCAGOULA AP  LGT RAIN  57  50  77 NW8G23    29.48R
PASCAGOULA*    NOT AVBL
HATTIESBURG    LGT RAIN  54  51  90 N6        29.44F
LAUREL         CLOUDY    54  48  82 NW5       29.46F
MERIDIAN       LGT RAIN  55  53  93 W7G16     29.44F
JACKSON        CLOUDY    55  52  89 CALM      29.41F
MONTGOMERY     CLOUDY    67  62  84 E10       29.37F HAZE
TROY           RAIN      68  67  96 CALM      29.38F FOG
ASHFORD*         N/A     66  63  88 S5        29.35F
DOTHAN         TSTM      67  67 100 S14       29.42F VSB 3/4
PANAMA CITY    CLOUDY    76  71  85 S25G33    29.40F

$$





USA.gov is the U.S. government's official web portal to all federal, state and local government web resources and services.